Lakehurst NAS, NJ

3:07 AM EDT on March 24, 2017 (GMT -0400)
Lakehurst Naes

Weather History for KNEL - May, 2014

Change the Weather History Date:

Wednesday, May 28, 2014

  Actual Average Record
Temperature  
Mean Temperature 60 °F -  
Max Temperature 53 °F 70 °F 90 °F (2012)
Min Temperature 53 °F 54 °F 46 °F (1997)
Degree Days  
Heating Degree Days 6    
Growing Degree Days 10 (Base 50)    
Moisture  
Dew Point 56 °F    
Average Humidity 91    
Maximum Humidity 97    
Minimum Humidity 83    
Precipitation  
Precipitation 0.01 in - - ()
Sea Level Pressure  
Sea Level Pressure 29.97 in    
Wind  
Wind Speed 8 mph (ENE)    
Max Wind Speed 15 mph    
Max Gust Speed 21 mph    
Visibility 7 miles    
Events Rain    
Averages and records for this station are not official NWS values.
T = Trace of Precipitation, MM = Missing Value Source: NWS Daily Summary

Daily Weather History Graph

Daily Weather History Graph

Search for Another Location

Airport or City:

Trip Planner

Search our weather history database for the weather conditions in past years. The results will help you decide how hot, cold, wet, or windy it might be!

Date:

Astronomy

May. 28, 2014 Rise Set
Actual Time 5:32 AM EDT 8:17 PM EDT
Civil Twilight 5:00 AM EDT 8:49 PM EDT
Nautical Twilight 4:20 AM EDT 9:29 PM EDT
Astronomical Twilight 3:35 AM EDT 10:14 PM EDT
Moon 5:36 AM EDT (5/28) 8:13 PM EDT (5/28)
Length of Visible Light 15h 48m
Length of Day
14h 44m
Waning Crescent, 0% of the Moon is Illuminated
May 28
Waning Crescent
May 28
New
Jun 5
First Quarter
Jun 13
Full
Jun 19
Last Quarter

Hourly Weather History & Observations

Time (EDT) Temp. Dew Point Humidity Pressure Visibility Wind Dir Wind Speed Gust Speed Precip Events Conditions
12:00 AM 66.0 °F 64.0 °F 93% 29.82 in 10.0 mi WNW 4.6 mph - N/A   Clear
1:00 AM 66.0 °F 64.0 °F 93% 29.81 in 10.0 mi West 5.8 mph - N/A   Partly Cloudy
2:00 AM 66.9 °F 64.9 °F 93% 29.81 in 7.0 mi West 5.8 mph - N/A   Overcast
3:00 AM 66.9 °F 64.9 °F 93% 29.80 in - West 4.6 mph - N/A   Overcast
4:00 AM 66.9 °F 64.9 °F 93% 29.80 in 5.0 mi West 3.5 mph - N/A   Partly Cloudy
4:42 AM 66.2 °F 64.4 °F 94% 29.81 in 4.0 mi NE 3.5 mph - N/A   Mostly Cloudy
4:50 AM 66.2 °F 64.4 °F 94% 29.81 in 4.0 mi Calm Calm - N/A   Mostly Cloudy
5:00 AM 66.9 °F 66.0 °F 97% 29.81 in 5.0 mi ENE 3.5 mph - N/A   Overcast
6:00 AM 59.0 °F 57.0 °F 93% 29.84 in 6.0 mi East 10.4 mph - N/A   Overcast
7:00 AM 57.9 °F 55.9 °F 93% 29.86 in 3.0 mi East 10.4 mph - N/A   Overcast
7:05 AM 57.2 °F 55.4 °F 94% 29.87 in 2.5 mi East 9.2 mph - N/A   Overcast
7:34 AM 57.2 °F 55.4 °F 94% 29.88 in 1.8 mi East 11.5 mph - N/A   Overcast
7:47 AM 57.2 °F 55.4 °F 94% 29.89 in 2.0 mi East 8.1 mph - N/A   Overcast
8:00 AM 57.2 °F 55.4 °F 94% 29.89 in 3.0 mi East 11.5 mph - N/A   Overcast
8:06 AM 57.0 °F 55.9 °F 96% 29.89 in 3.0 mi East 11.5 mph - N/A   Overcast
8:24 AM 57.2 °F 55.4 °F 94% 29.90 in 2.5 mi East 10.4 mph - N/A   Overcast
9:00 AM 57.0 °F 55.9 °F 96% 29.92 in 2.0 mi East 8.1 mph - N/A   Overcast
9:35 AM 57.2 °F 55.4 °F 94% 29.92 in 4.0 mi East 10.4 mph - N/A   Overcast
10:00 AM 57.0 °F 55.0 °F 93% 29.93 in 7.0 mi ESE 9.2 mph - N/A   Overcast
10:07 AM 57.2 °F 55.4 °F 94% 29.94 in 7.0 mi East 8.1 mph - N/A   Overcast
11:00 AM 57.0 °F 55.0 °F 93% 29.95 in 7.0 mi ESE 8.1 mph - 0.00 in   Overcast
12:00 PM 57.0 °F 54.0 °F 89% 29.95 in 9.0 mi East 9.2 mph - N/A   Overcast
1:00 PM 57.0 °F 53.1 °F 87% 29.96 in 10.0 mi East 9.2 mph - N/A   Overcast
2:00 PM 57.0 °F 53.1 °F 87% 29.98 in 10.0 mi ENE 8.1 mph - 0.00 in   Overcast
2:33 PM 55.4 °F 53.6 °F 94% 29.99 in 2.5 mi East 8.1 mph - 0.01 in Rain Rain
2:44 PM 55.4 °F 53.6 °F 94% 29.99 in 3.0 mi East 6.9 mph - 0.01 in Rain Light Rain
3:00 PM 57.2 °F 53.6 °F 88% 29.99 in 9.0 mi ENE 8.1 mph - 0.01 in Rain Light Rain
3:06 PM 57.0 °F 54.0 °F 89% 29.99 in 10.0 mi ENE 9.2 mph - 0.01 in   Overcast
4:00 PM 57.0 °F 53.1 °F 87% 30.00 in 10.0 mi ENE 11.5 mph - N/A   Overcast
5:00 PM 57.0 °F 52.0 °F 83% 30.02 in 10.0 mi ENE 13.8 mph - N/A   Overcast
6:00 PM 57.0 °F 52.0 °F 83% 30.04 in 10.0 mi ENE 13.8 mph - N/A   Overcast
7:00 PM 55.9 °F 53.1 °F 90% 30.06 in 9.0 mi ENE 10.4 mph - N/A   Overcast
8:00 PM 55.4 °F 53.6 °F 94% 30.08 in 2.5 mi East 12.7 mph - 0.00 in Rain Light Rain
8:07 PM 55.4 °F 53.6 °F 94% 30.08 in 3.0 mi East 13.8 mph 20.7 mph 0.00 in Rain Light Rain
8:16 PM 55.4 °F 51.8 °F 88% 30.09 in 10.0 mi East 11.5 mph - 0.00 in   Overcast
8:23 PM 55.4 °F 51.8 °F 88% 30.09 in 10.0 mi ENE 10.4 mph - 0.00 in   Overcast
8:29 PM 55.0 °F 52.0 °F 89% 30.09 in 10.0 mi ENE 13.8 mph - 0.00 in   Overcast
8:53 PM 55.4 °F 51.8 °F 88% 30.11 in 10.0 mi ENE 15.0 mph - N/A   Overcast
9:00 PM 53.6 °F 51.8 °F 94% 30.12 in 10.0 mi ENE 12.7 mph - N/A   Overcast
9:06 PM 53.6 °F 50.0 °F 88% 30.12 in 10.0 mi ENE 12.7 mph 20.7 mph N/A   Overcast
9:46 PM 53.6 °F 51.8 °F 94% 30.14 in 10.0 mi ENE 10.4 mph - N/A   Overcast
10:00 PM 54.0 °F 51.1 °F 90% 30.14 in 7.0 mi ENE 10.4 mph - N/A   Overcast
10:40 PM 53.6 °F 50.0 °F 88% 30.15 in 10.0 mi ENE 9.2 mph - N/A   Overcast
11:00 PM 53.1 °F 48.9 °F 86% 30.14 in 10.0 mi ENE 12.7 mph 20.7 mph N/A   Overcast